This demonstration page uses our WeatherBlox Daily Observations layout. Learn more.

36.17497, -115.13722

Hourly Observations for September 29, 2018

Temp ( °F °C ) Dew Point ( °F °C ) Humidity (%) Winds ( mph kmh ) Pressure ( in mb ) Visibility ( mi km ) Precip ( " mm )
12:53 am 00:53 Clear 81 27.2 37 2.8 21 21 S 6 9 29.77 1008 10 16.09344 0 0
1:53 am 01:53 Clear 82 27.8 38 3.3 21 21 SSW 7 11 29.77 1008 10 16.09344 0 0
2:53 am 02:53 Clear 81 27.2 39 3.9 22 22 SSW 6 9 29.77 1008 10 16.09344 0 0
3:53 am 03:53 Clear 77 25 39 3.9 26 26 ESE 8 13 29.77 1008 10 16.09344 0 0
4:53 am 04:53 Clear 79 26.1 40 4.4 25 25 SSE 7 11 29.77 1008 10 16.09344 0 0
5:53 am 05:53 Clear 76 24.4 40 4.4 27 27 E 6 9 29.8 1009 10 16.09344 0 0
6:53 am 06:53 Sunny 74 23.3 41 5 31 31 ESE 8 13 29.8 1009 10 16.09344 0 0
7:53 am 07:53 Sunny 78 25.6 43 6.1 29 29 ESE 7 11 29.83 1010 10 16.09344 0 0
8:53 am 08:53 Sunny 82 27.8 43 6.1 25 25 E 7 11 29.83 1010 10 16.09344 0 0
9:53 am 09:53 Sunny 86 30 44 6.7 23 23 E 9 15 29.83 1010 10 16.09344 0 0
10:53 am 10:53 Sunny 91 32.8 36 2.2 14 14 SSW 18 30 29.8 1009 10 16.09344 0 0
11:53 am 11:53 Sunny 92 33.3 36 2.2 14 14 SSW 17 28 29.8 1009 10 16.09344 0 0
12:53 pm 12:53 Sunny 93 33.9 38 3.3 14 14 SW 13 20 29.77 1008 10 16.09344 0 0
1:53 pm 13:53 Sunny 95 35 37 2.8 13 13 SW 14 22 29.74 1007 10 16.09344 0 0
2:53 pm 14:53 Sunny 96 35.6 36 2.2 12 12 SSW 18 30 29.71 1006 10 16.09344 0 0
3:53 pm 15:53 Sunny 94 34.4 39 3.9 15 15 SSW 8 13 29.71 1006 10 16.09344 0 0
4:53 pm 16:53 Sunny 94 34.4 38 3.3 14 14 WSW 13 20 29.71 1006 10 16.09344 0 0
5:53 pm 17:53 Sunny 93 33.9 43 6.1 18 18 S 14 22 29.71 1006 10 16.09344 0 0
6:53 pm 18:53 Clear 91 32.8 38 3.3 15 15 SW 10 17 29.71 1006 10 16.09344 0 0
7:53 pm 19:53 Clear 90 32.2 39 3.9 17 17 SSW 12 19 29.74 1007 10 16.09344 0 0
8:53 pm 20:53 Clear 88 31.1 23 -5 9 9 W 9 15 29.74 1007 10 16.09344 0 0
9:53 pm 21:53 Clear 84 28.9 24 -4.4 11 11 S 9 15 29.77 1008 10 16.09344 0 0
10:53 pm 22:53 Clear 82 27.8 22 -5.6 11 11 SE 10 17 29.77 1008 10 16.09344 0 0
11:53 pm 23:53 Clear 81 27.2 26 -3.3 13 13 S 9 15 29.77 1008 10 16.09344 0 0

Powered by AerisWeather